Location: Unspecified
(50.0077°N, 36.2988°E)
Time: 20:23:06
(UTC+00:00)

Envisat - Visible Passes

Search period start: 21 September 2020 00:00
Search period end: 01 October 2020 00:00
Orbit: 764 x 766 km, 98.1° (Epoch: 21 September)

Date Brightness Start Highest point End Pass type
(mag) Time Alt. Az. Time Alt. Az. Time Alt. Az.
21 Sep 6.0 02:38:26 10° NE 02:42:17 21° E 02:46:07 10° SE visible
22 Sep 6.7 02:04:31 10° ENE 02:04:57 10° E 02:05:23 10° E visible
23 Sep 6.1 16:03:12 10° SW 16:06:45 19° W 16:10:20 10° NW visible
24 Sep 6.1 02:27:27 10° NE 02:30:47 17° E 02:34:06 10° SE visible
25 Sep 6.6 16:31:01 10° WSW 16:32:34 11° W 16:34:07 10° WNW visible
26 Sep 5.5 02:52:09 10° NE 02:56:31 28° E 03:00:50 10° SSE visible
26 Sep 5.9 15:51:15 10° SW 15:55:15 23° W 15:59:18 10° NW visible
27 Sep 6.3 02:16:39 10° NE 02:19:16 14° E 02:21:53 10° ESE visible
28 Sep 6.3 16:18:22 10° WSW 16:21:02 14° W 16:23:43 10° NW visible
29 Sep 5.8 02:41:02 10° NE 02:45:03 23° E 02:49:01 10° SE visible
29 Sep 5.5 15:39:27 10° SSW 15:43:47 28° W 15:48:10 10° NW visible
30 Sep 6.6 02:06:17 10° ENE 02:07:44 11° E 02:09:10 10° E visible
